Theta_e
293 294 294 295 296 295 295 294 291 287 289 293 292 296 297 305 306 307 308 308 306 304 304 306 310 313 316 317 318 319 320 320 320 320 319 320 320 320
293 292 293 293 294 294 294 294 295 293 289 293 294 293 295 298 305 304 305 306 304 303 302 303 305 309 312 314 315 315 317 317 317 318 318 318 319 319
291 291 291 292 291 292 293 293 292 292 289 292 295 295 293 293 296 302 303 303 305 302 300 300 301 302 304 310 311 312 313 314 314 315 316 317 318 319
289 289 289 291 290 291 291 291 291 292 291 289 292 293 292 292 293 294 301 303 300 302 300 299 299 300 300 301 305 307 309 309 309 311 313 314 316 317
288 288 288 288 288 289 289 289 290 292 291 290 290 293 293 291 290 291 293 298 300 301 298 297 298 299 299 299 300 304 305 305 304 305 307 308 310 311
288 288 287 287 286 286 287 287 288 287 288 289 289 290 291 292 290 288 288 292 293 299 298 297 297 298 298 299 298 301 305 305 304 304 301 300 302 304
285 285 285 286 288 287 286 285 285 285 286 286 287 288 288 288 287 288 287 288 290 291 293 294 293 297 299 298 299 300 302 304 303 303 302 300 298 299
283 283 284 285 285 286 286 286 285 283 283 283 284 285 286 288 288 287 286 284 288 287 289 291 288 291 292 298 299 298 299 302 303 302 301 299 299 297
281 282 282 284 285 284 285 286 286 286 284 283 281 283 284 286 288 286 285 285 289 287 288 286 286 287 287 291 294 296 298 300 302 301 299 297 296 294
282 282 282 282 283 284 283 283 284 286 286 286 284 284 285 286 287 289 287 286 287 286 285 285 283 283 285 287 293 295 297 298 299 298 297 295 293 292
283 283 283 282 284 285 284 283 282 283 287 289 288 288 288 287 287 287 284 285 285 284 285 282 281 281 283 284 286 292 293 295 296 296 295 294 292 291
284 284 285 285 285 285 283 282 281 282 283 284 284 286 288 287 288 287 285 283 284 282 284 279 280 281 279 283 284 285 286 289 293 292 292 291 289 287
281 281 282 284 284 285 285 283 282 284 283 283 284 284 285 286 286 287 287 285 285 285 282 280 279 280 280 280 282 284 284 285 284 286 290 289 289 286
281 282 283 284 284 284 284 284 284 283 284 283 283 282 284 285 286 287 287 287 289 288 285 282 278 279 280 279 278 282 283 284 285 284 284 285 285 285
282 282 284 284 284 283 284 283 283 281 281 281 282 283 284 285 286 287 286 288 287 286 286 285 281 281 282 279 279 280 280 282 284 283 283 281 278 278
282 282 281 281 282 282 283 284 283 283 281 281 282 283 285 285 286 286 284 284 282 282 284 284 283 282 280 281 281 279 280 278 282 282 282 281 281 281
282 282 281 280 280 280 281 284 281 281 281 283 282 283 284 284 285 284 283 282 280 280 280 283 284 283 282 281 279 279 279 279 281 280 279 276 278 280
281 279 277 278 278 279 279 282 281 280 280 279 280 283 284 284 283 283 283 281 280 279 279 279 279 278 279 279 282 278 278 279 279 279 278 277 276 279
279 277 277 277 277 278 279 280 280 284 283 281 280 283 282 281 282 282 282 281 280 279 279 279 278 278 275 273 276 282 277 278 278 277 278 277 276 277
280 278 277 277 278 277 278 279 280 281 281 282 284 284 281 280 280 281 280 279 278 279 278 279 278 279 277 274 273 273 281 278 277 276 276 275 277 280
278 278 279 278 277 278 278 278 279 279 280 281 281 281 282 281 281 281 278 279 278 278 277 277 279 280 276 275 272 270 272 281 280 277 277 273 273 273
276 277 278 278 279 278 277 277 277 278 279 279 278 278 280 280 280 278 278 277 278 276 274 276 277 278 275 274 270 268 269 271 276 277 276 275 274 271
274 275 276 277 278 278 278 277 276 276 277 278 277 277 276 275 277 275 274 274 274 274 274 275 277 277 275 273 271 270 269 270 271 269 268 274 274 274
Wind_Speed
10 10 10 9 8 9 10 11 12 16 14 8 5 5 4 4 6 5 6 9 10 11 13 14 19 21 26 31 33 33 33 33 32 31 31 31 31 30
9 11 11 9 10 9 10 10 10 13 16 10 9 5 4 6 6 5 5 8 11 12 13 14 18 20 25 30 32 33 33 33 33 32 32 31 31 30
12 13 15 14 11 11 11 11 11 11 13 12 10 8 5 6 6 5 6 6 5 9 9 11 15 19 18 31 32 33 33 33 34 34 34 34 33 31
13 13 14 11 14 12 10 13 12 12 11 19 12 9 9 7 8 8 7 6 5 7 8 10 13 15 15 13 24 31 32 31 31 34 36 37 33 32
13 14 14 14 15 13 13 13 11 11 11 11 15 11 10 4 6 5 7 6 5 6 9 10 11 12 12 11 19 26 31 31 29 25 27 30 34 35
10 11 11 12 13 13 13 14 13 11 11 10 12 12 10 8 5 5 6 3 4 3 7 8 10 11 13 11 13 25 30 32 32 31 28 22 24 27
12 12 13 17 25 21 12 14 14 12 11 9 11 11 9 8 6 4 5 4 5 4 5 8 4 7 8 13 9 20 28 33 34 33 36 33 30 24
13 14 15 23 22 27 27 28 22 16 16 11 10 11 8 7 5 5 5 3 6 3 3 6 1 5 4 5 11 15 23 28 35 36 35 35 34 32
15 15 15 13 20 17 22 26 26 28 24 17 19 17 15 8 9 6 4 3 7 3 4 2 0 3 3 6 4 12 22 27 33 36 36 35 35 32
16 17 17 18 18 19 18 17 17 16 18 16 18 17 18 14 13 11 0 8 1 1 2 3 1 1 4 5 5 7 17 28 30 35 37 35 32 31
16 17 17 18 23 27 19 17 17 16 17 23 24 24 24 23 20 10 10 5 3 2 1 3 2 1 3 4 6 9 10 13 27 30 34 35 33 32
12 11 18 19 25 26 18 16 15 15 13 14 12 15 18 15 18 11 9 10 6 3 4 4 2 3 1 3 4 4 7 18 10 33 36 38 34 15
11 11 10 18 18 21 25 16 16 14 14 13 11 10 10 10 10 11 12 11 9 6 4 4 3 3 2 1 2 4 7 8 9 7 23 32 29 23
13 10 10 19 21 19 13 15 15 12 9 9 9 9 9 9 10 9 11 12 10 8 6 4 4 4 4 2 2 2 6 5 9 9 9 17 23 19
10 14 21 20 20 17 23 26 22 11 11 10 10 7 8 9 8 8 1 10 6 5 8 8 4 6 4 5 7 4 6 4 6 10 9 9 9 8
11 9 11 13 15 13 14 15 12 11 11 10 7 6 3 5 6 4 5 4 4 2 4 3 5 5 3 5 8 8 6 5 8 9 9 8 7 7
11 7 6 5 6 8 10 3 2 2 6 6 5 5 4 6 5 4 6 4 4 6 4 5 7 7 5 7 6 7 7 8 8 10 11 8 6 7
7 6 7 8 7 8 9 5 2 3 2 2 2 2 3 2 7 6 7 6 7 6 8 8 10 8 5 7 5 8 6 7 7 9 9 8 6 6
7 7 8 7 7 8 8 8 7 4 3 2 2 0 6 5 6 6 4 6 7 8 6 7 7 8 7 4 2 4 7 7 8 8 7 5 7 6
7 7 7 9 7 8 8 8 7 7 6 6 4 6 5 5 4 3 6 6 7 6 8 7 5 5 7 6 4 1 6 8 9 8 6 4 3 11
8 9 9 7 8 8 7 8 9 8 7 6 7 6 4 2 5 5 4 9 10 7 8 5 3 10 10 7 5 3 5 9 9 8 8 6 6 6
9 9 10 9 8 7 8 8 8 9 8 8 8 7 7 6 6 6 6 7 7 8 8 6 7 7 3 6 8 6 5 7 17 20 17 10 3 6
10 10 10 9 9 8 8 7 8 8 9 7 6 7 8 8 9 9 9 9 9 8 6 6 5 5 7 8 10 7 9 8 4 7 9 17 18 17
Wind_Direction
268 270 275 277 276 270 271 268 275 286 280 282 261 261 289 244 267 274 261 264 262 231 228 240 246 242 210 201 200 202 201 201 201 201 199 196 197 200
270 268 268 270 268 268 271 274 268 264 271 264 273 252 271 295 252 229 255 273 270 271 257 238 240 239 228 207 202 200 201 198 197 196 195 193 195 198
268 268 269 270 272 275 276 275 273 275 278 276 266 281 272 238 272 222 218 225 239 252 253 252 255 250 238 223 204 200 198 195 197 194 192 193 193 193
273 277 279 281 282 281 275 274 275 272 265 275 266 258 253 252 252 263 236 215 228 232 235 237 232 247 251 248 219 198 196 196 197 196 193 189 188 182
274 274 274 274 273 273 274 273 273 277 280 271 275 267 262 247 261 268 272 247 190 258 281 258 239 235 229 241 251 213 193 190 186 196 193 187 181 177
279 283 288 290 290 289 283 282 284 285 285 292 279 267 264 260 231 239 265 236 232 196 265 276 281 240 239 220 244 249 204 192 189 182 167 175 174 172
287 287 286 281 279 275 275 275 277 277 280 275 277 286 262 256 247 246 250 249 227 194 241 263 280 260 242 229 225 244 234 196 182 177 172 169 160 165
284 275 270 271 270 268 265 264 258 259 260 262 269 269 286 292 258 241 241 221 252 193 203 252 232 256 262 233 206 219 224 210 185 173 172 168 166 160
276 273 269 263 264 261 258 258 255 250 246 250 254 252 267 267 305 305 341 344 272 195 154 216 50 290 304 273 163 211 207 212 191 177 169 165 161 154
267 263 259 259 256 256 257 255 253 250 245 237 242 246 249 246 250 275 244 302 298 83 176 175 59 314 294 318 35 113 201 195 185 174 164 156 151 146
263 259 256 255 252 254 255 251 246 245 249 253 244 238 240 242 243 242 255 298 271 213 235 126 155 88 326 349 343 52 76 194 175 169 156 150 146 142
281 269 265 259 258 255 248 249 251 248 241 243 245 250 246 242 242 240 231 237 247 257 191 117 144 128 342 329 14 9 63 62 168 156 147 137 138 136
287 280 271 272 275 270 258 243 243 245 243 241 244 240 238 227 233 233 220 218 224 250 204 132 148 127 93 106 24 25 87 100 97 80 133 134 135 141
292 286 279 272 274 275 273 264 254 248 240 230 229 229 231 229 238 223 209 204 202 206 188 181 147 151 144 105 122 84 87 103 119 116 108 99 107 117
290 290 292 290 282 274 264 259 253 237 231 238 224 223 227 223 229 224 163 166 160 143 192 195 158 149 141 140 149 145 134 121 121 121 121 111 114 115
311 295 286 279 275 270 269 262 245 225 209 216 210 210 212 234 197 171 148 134 116 84 109 62 105 131 108 130 147 148 142 152 147 138 131 117 128 139
324 340 345 336 336 333 323 325 9 99 175 183 165 199 209 247 203 140 123 123 120 131 119 103 83 78 69 130 132 144 138 136 144 142 131 120 129 145
351 352 2 356 350 350 345 345 37 81 104 122 139 178 192 178 124 127 144 135 132 140 140 138 115 106 90 34 100 133 127 139 136 143 138 138 148 163
15 13 7 5 2 359 0 5 18 24 51 103 153 294 111 87 101 130 131 134 143 146 142 135 138 149 130 117 58 164 140 140 142 146 148 149 163 166
11 12 21 9 6 12 8 11 16 22 31 36 52 102 107 110 110 113 131 133 137 141 138 142 146 154 135 147 126 342 177 146 158 150 146 82 65 149
12 15 12 25 17 16 17 15 20 31 29 36 36 41 47 83 131 129 112 124 128 131 132 130 115 98 105 99 100 68 24 122 143 146 146 129 148 150
3 15 14 13 21 26 23 23 24 23 35 42 43 42 41 49 66 82 104 113 119 110 106 105 110 119 89 122 130 116 111 70 74 81 73 72 168 157
9 8 12 17 15 20 20 32 32 31 33 45 51 42 46 53 60 65 75 86 98 104 106 113 111 99 106 121 126 117 118 115 117 89 60 73 78 77